This demonstration page uses our WeatherBlox Daily Observations layout. Learn more.

Left ArrowRight Arrow

31.84235, -102.49876

Hourly Observations for March 23, 2017

Temp ( °F °C ) Dew Point ( °F °C ) Humidity (%) Winds ( mph kmh ) Pressure ( in mb ) Visibility ( mi km ) Precip ( " mm )
12:53 am 00:53 Clear 67 19.4 59 15 76 76 SSE 17 28 29.84 1011 10 16 0.00 0.00
1:53 am 01:53 Clear 67 19.4 59 15 76 76 S 24 39 29.82 1010 10 16 0.00 0.00
2:53 am 02:53 Clear 67 19.4 57 13.9 71 71 S 24 39 29.80 1009 10 16 0.00 0.00
3:53 am 03:53 Clear 67 19.4 55 12.8 66 66 S 18 30 29.78 1009 10 16 0.00 0.00
4:53 am 04:53 Clear 66 18.9 54 12.2 65 65 SSW 17 28 29.80 1009 10 16 0.00 0.00
5:53 am 05:53 Clear 65 18.3 53 11.7 66 66 SSW 12 19 29.79 1009 10 16 0.00 0.00
6:53 am 06:53 Clear 64 17.8 55 12.8 73 73 S 16 26 29.79 1009 10 16 0.00 0.00
7:53 am 07:53 Sunny 63 17.2 56 13.3 78 78 S 14 22 29.80 1009 10 16 0.00 0.00
8:53 am 08:53 Sunny 64 17.8 57 13.9 78 78 S 10 17 29.81 1010 9 14 0.00 0.00
9:53 am 09:53 Sunny 66 18.9 57 13.9 73 73 SSE 18 30 29.81 1010 10 16 0.00 0.00
10:53 am 10:53 Sunny 69 20.6 56 13.3 63 63 SSW 18 30 29.82 1010 9 14 0.00 0.00
11:53 am 11:53 Sunny 74 23.3 54 12.2 50 50 S 25 41 29.80 1009 10 16 0.00 0.00
12:53 pm 12:53 Sunny 79 26.1 53 11.7 41 41 S 25 41 29.75 1008 10 16 0.00 0.00
1:53 pm 13:53 Sunny 81 27.2 51 10.6 35 35 S 31 50 29.70 1006 9 14 0.00 0.00
2:53 pm 14:53 Sunny 83 28.3 51 10.6 33 33 S 30 48 29.64 1004 10 16 0.00 0.00
3:53 pm 15:53 Sunny 83 28.3 51 10.6 33 33 SSE 33 54 29.59 1002 10 16 0.00 0.00
4:53 pm 16:53 Sunny 83 28.3 51 10.6 33 33 S 36 57 29.56 1001 10 16 0.00 0.00
5:53 pm 17:53 Sunny 81 27.2 51 10.6 35 35 SSE 37 59 29.54 1000 9 14 0.00 0.00
6:53 pm 18:53 Sunny 77 25 52 11.1 42 42 S 35 56 29.54 1000 10 16 0.00 0.00
7:53 pm 19:53 Sunny 74 23.3 52 11.1 46 46 S 33 54 29.52 1000 7 11 0.00 0.00
8:53 pm 20:53 Clear 73 22.8 53 11.7 50 50 SSW 20 31 29.65 1004 10 16 0.00 0.00
9:53 pm 21:53 Clear 73 22.8 52 11.1 48 48 SSW 26 43 29.69 1005 10 16 0.00 0.00
10:35 pm 22:35 Mostly Clear with Light Rain 65 18.3 44 6.7 47 47 W 15 24 29.74 1007 5 8 0.03 0.76
10:42 pm 22:42 Mostly Clear with Nearby Thunderstorms 66 18.9 40 4.4 39 39 NW 20 31 29.74 1007 8 13 0.03 0.76
10:53 pm 22:53 Clear 66 18.9 35 1.7 32 32 WNW 20 31 29.75 1007 8 13 0.03 0.76
11:53 pm 23:53 Clear 65 18.3 24 -4.4 21 21 WNW 23 37 29.77 1008 10 16 0.00 0.00

Powered by AerisWeather